GFSSW_sfc_dewp_084.txt.gz
Dewpoint
58 58 59 59 60 61 61 60 60 60 59 58 57 56 58 55 56 51 43 47 51 61 57 38 34 34 34 38 38 35 29 27 27 23 26 27 25 26 27 31 34 37 44 51 55
58 58 58 59 60 60 61 60 60 60 58 58 58 57 58 55 50 46 50 51 55 60 48 34 31 32 31 32 32 30 30 29 26 22 26 26 25 25 23 31 34 41 51 55 56
58 58 58 58 59 59 60 60 60 60 59 59 58 57 57 54 45 46 54 53 55 56 49 44 33 30 30 31 31 29 28 27 22 25 26 26 25 23 23 25 30 38 51 55 55
58 57 57 58 58 59 60 60 60 60 59 60 58 58 56 53 42 50 56 56 55 54 48 41 31 30 29 28 28 29 23 23 29 29 27 27 24 23 22 25 27 36 50 53 54
58 57 57 57 58 59 59 60 60 59 60 59 59 59 55 48 47 55 57 55 54 48 46 39 30 31 29 28 26 28 23 26 28 27 25 25 24 22 23 24 24 35 49 50 51
58 57 57 57 58 58 59 60 60 60 59 58 58 57 52 42 46 56 52 54 48 45 45 39 30 30 27 24 26 26 27 25 25 24 25 25 23 23 22 24 27 30 40 48 49
58 57 57 57 57 58 58 59 59 59 59 58 57 53 47 43 43 54 54 54 49 46 41 37 32 30 29 30 28 26 24 23 24 24 25 27 23 20 22 22 22 27 34 40 46
57 57 57 56 56 58 58 58 58 59 58 58 57 51 42 45 43 47 53 53 49 45 38 35 32 31 32 28 26 24 24 22 23 24 27 24 20 20 19 17 19 21 25 33 41
56 57 56 56 56 57 57 57 57 59 58 57 52 49 39 45 39 39 43 43 44 38 33 28 31 30 29 22 21 21 19 19 21 24 24 19 18 19 19 15 14 17 21 31 36
56 57 56 55 55 56 56 57 57 57 55 52 46 46 37 36 39 37 38 37 34 34 31 31 30 27 24 20 15 19 16 18 17 21 24 18 17 16 19 19 15 13 15 23 26
56 57 56 55 56 57 55 52 48 46 48 39 38 37 31 37 38 36 36 34 32 30 26 27 23 22 20 19 19 17 15 14 18 22 20 20 18 16 20 19 19 18 15 19 20
56 56 56 56 56 56 51 43 41 41 41 37 35 38 38 36 33 34 34 30 30 27 26 24 22 22 22 19 19 15 15 15 22 22 22 18 18 18 17 18 19 20 20 20 23
54 56 56 55 56 54 48 41 41 40 34 35 33 34 38 37 32 32 32 30 28 25 24 20 22 22 20 16 15 15 15 17 18 23 22 17 12 17 17 19 17 18 20 19 21
55 56 56 55 52 50 47 43 40 42 22 26 31 33 37 38 34 36 33 29 26 24 23 21 22 20 18 15 14 13 16 21 23 16 10 14 -1 13 14 14 16 19 24 23 30
54 56 55 55 49 49 47 44 47 42 17 27 31 37 38 33 33 32 35 29 23 23 22 22 21 22 20 16 15 19 23 23 24 20 21 16 7 9 12 11 17 25 27 31 32
53 55 55 53 49 48 49 49 45 29 24 26 31 34 33 32 31 33 30 28 28 22 24 24 24 23 22 23 20 24 23 22 22 22 11 16 7 7 8 9 20 27 30 32 34
50 55 53 50 46 49 50 46 29 27 29 26 28 31 31 29 30 27 25 23 20 17 19 22 22 26 25 22 24 21 15 16 12 15 15 17 14 8 10 17 20 27 31 34 35
47 54 52 52 50 50 47 34 25 26 25 28 28 29 28 28 29 26 24 20 21 16 17 19 17 22 24 22 22 20 12 18 10 16 13 18 11 11 19 21 23 31 34 35 36
47 52 50 48 52 52 40 29 24 24 27 24 28 26 25 27 27 24 22 20 19 16 12 13 22 27 26 26 21 19 15 22 17 18 20 14 13 18 21 21 27 33 34 34 36
43 47 44 47 49 50 36 28 24 25 28 27 20 25 21 24 25 23 22 21 20 21 22 14 22 27 27 27 24 20 17 13 17 9 13 11 14 8 21 21 27 32 33 34 35
41 41 42 47 50 45 33 29 27 29 28 25 24 24 21 23 23 22 21 21 21 21 21 18 27 26 26 24 20 17 14 14 16 22 20 14 8 10 21 22 26 32 33 33 34
37 33 42 46 40 40 33 29 33 31 35 31 28 25 21 22 21 22 22 20 21 23 19 29 27 24 22 28 27 23 15 14 16 15 15 23 16 22 19 23 29 31 33 34 35
33 34 42 43 32 35 35 30 33 32 31 34 29 28 26 21 20 23 24 28 26 24 22 28 28 24 22 24 26 22 20 17 18 24 18 15 12 23 24 26 30 32 32 34 36
36 32 34 37 36 34 33 30 30 40 33 36 31 30 27 24 28 25 29 33 31 28 35 32 29 25 18 18 22 21 20 19 15 21 19 19 15 21 26 28 31 32 34 36 36
36 32 32 31 33 35 34 32 30 35 39 39 36 30 26 26 27 28 33 30 31 34 28 25 24 23 20 21 21 20 21 20 18 12 12 9 11 19 25 28 30 32 34 35 36
33 32 35 33 34 35 35 34 31 33 37 37 37 33 28 26 26 26 28 29 27 32 25 27 25 21 25 25 25 23 23 21 18 16 14 13 11 13 23 29 30 32 34 35 35
37 37 35 33 33 33 33 33 34 34 39 38 37 36 33 38 38 35 33 32 31 28 25 27 29 25 18 27 24 20 25 22 21 19 17 13 13 19 23 28 30 31 33 35 35

GFSSW_sfc_dewp_087.txt.gz
Dewpoint
58 59 59 59 60 60 62 62 61 61 61 59 57 56 58 56 57 53 43 50 53 60 57 39 35 33 33 33 34 31 26 25 25 22 24 26 24 26 30 33 38 45 46 51 57
54 59 58 59 59 59 61 61 61 60 60 59 57 56 58 56 49 44 50 51 54 59 46 42 35 34 31 31 31 27 26 26 26 24 25 25 24 24 30 34 38 53 54 55 56
55 58 58 58 59 59 61 60 60 60 60 59 58 57 57 54 44 44 54 54 53 56 49 46 41 34 31 31 28 27 25 26 22 26 27 26 25 24 30 29 37 52 54 54 55
56 59 58 58 59 59 60 60 60 60 60 59 58 58 56 52 41 50 56 56 54 53 46 39 37 31 29 28 28 23 23 24 30 28 27 26 25 22 24 24 34 54 55 55 54
56 59 57 58 58 59 60 60 60 60 59 59 59 57 52 47 47 54 57 58 50 47 43 43 42 34 27 27 27 25 23 26 28 25 27 25 24 22 23 25 38 53 54 54 54
56 58 57 57 57 59 59 60 60 60 60 59 58 57 50 44 51 53 52 50 47 48 45 44 41 37 28 26 25 26 27 25 26 25 25 23 23 21 23 25 43 51 52 54 54
55 57 57 57 57 58 58 59 59 59 59 59 58 52 47 44 54 54 52 48 49 45 45 44 44 37 30 27 27 26 23 23 24 25 23 23 22 19 23 25 28 41 48 50 52
55 56 57 56 56 58 58 58 59 59 59 59 57 50 42 46 54 52 53 52 51 48 47 46 43 37 29 28 25 23 23 20 23 24 26 22 17 21 22 22 23 27 34 44 48
54 56 57 56 56 56 57 58 58 59 58 58 51 47 39 45 42 53 53 51 51 50 47 45 42 30 26 22 22 23 18 19 22 23 22 18 16 19 18 18 19 21 24 32 42
54 56 56 56 56 56 57 58 57 57 55 51 48 42 42 37 41 43 53 54 48 47 45 44 40 30 24 20 18 19 17 18 19 21 20 16 17 16 19 15 14 14 21 31 36
51 56 57 56 56 56 56 53 49 48 50 44 43 41 38 38 41 39 46 49 47 44 38 41 36 31 23 20 19 17 17 17 19 22 20 17 15 16 17 19 18 14 15 25 30
52 56 57 56 55 55 52 46 42 43 43 42 42 41 38 38 37 38 39 41 42 37 37 32 30 28 25 22 20 18 16 17 22 23 18 19 18 19 19 19 18 19 16 19 22
51 56 57 55 55 53 48 42 45 43 37 37 40 40 37 36 35 36 37 37 37 35 35 30 27 26 24 21 18 15 15 16 15 22 21 15 9 18 20 17 19 19 20 20 22
50 54 56 56 52 50 45 44 43 36 27 29 31 35 37 35 33 35 38 34 33 30 29 28 27 24 22 19 15 12 16 21 22 12 7 8 -0 7 16 16 18 18 19 21 28
50 52 56 55 51 48 45 45 42 32 17 27 32 37 37 33 33 33 33 30 28 27 25 26 23 23 20 17 15 15 24 22 21 19 14 14 1 2 14 14 15 17 23 27 29
47 50 55 55 52 49 47 46 36 29 21 27 32 34 33 33 33 33 30 31 28 27 24 21 24 23 21 22 17 22 23 21 23 19 10 13 2 1 9 10 15 23 29 33 36
47 49 54 54 49 50 49 38 29 24 27 27 28 31 30 30 30 29 27 26 24 26 22 20 24 25 24 21 23 21 12 14 11 14 9 17 9 4 10 11 18 27 31 33 36
46 47 53 52 53 51 47 35 23 26 25 29 30 30 27 29 29 28 26 24 22 22 19 18 17 22 23 21 20 18 13 14 8 15 10 14 12 11 18 22 28 31 33 35 37
45 49 52 50 52 50 41 29 23 25 28 28 29 27 27 28 28 27 24 22 20 19 17 16 19 27 27 26 21 19 15 18 16 14 16 10 10 15 21 25 31 33 34 35 37
41 44 44 50 52 48 36 28 25 27 28 28 23 25 24 26 26 25 25 23 21 21 19 17 20 27 26 26 22 18 17 13 15 9 9 9 8 6 18 19 31 33 33 35 36
38 40 42 47 50 43 31 29 27 28 28 25 24 25 23 25 25 24 24 22 22 21 19 23 25 26 25 22 18 15 12 13 18 17 13 10 8 12 16 19 28 32 34 35 35
33 32 42 46 40 39 33 29 33 31 33 27 26 24 23 24 24 25 23 22 22 22 19 28 27 25 22 26 26 21 14 13 13 11 17 17 7 21 19 20 26 32 33 34 35
32 32 42 46 33 34 34 28 33 30 31 29 27 26 23 24 23 23 25 26 24 22 25 29 27 23 22 22 25 21 19 14 20 20 16 15 9 21 23 24 29 32 33 34 36
33 31 35 39 35 36 33 28 34 37 33 33 29 28 24 24 29 25 28 32 31 26 36 33 28 23 17 14 21 21 19 18 15 17 15 15 5 17 24 27 31 33 33 35 36
33 31 31 33 34 35 33 30 33 33 37 37 32 27 26 26 30 29 31 29 30 34 28 24 24 24 20 21 20 20 20 19 14 10 8 8 9 14 25 27 31 32 34 35 36
32 32 33 32 34 34 34 32 29 37 36 36 31 31 27 26 28 30 29 28 27 29 25 26 24 21 24 25 23 20 22 20 18 16 13 12 12 13 21 30 31 33 34 35 35
37 37 34 32 33 34 34 33 31 36 39 39 36 33 32 35 33 30 32 31 29 27 25 26 26 23 19 25 21 21 23 21 18 18 15 13 13 18 23 29 31 33 34 35 35

GFSSW_sfc_dewp_093.txt.gz
Dewpoint
58 58 58 60 60 59 59 60 60 61 62 62 62 60 60 60 59 54 49 51 51 59 58 48 37 33 34 34 34 31 27 26 25 20 21 25 24 26 34 37 44 48 52 55 59
56 56 57 58 58 59 59 60 59 60 62 61 61 60 59 58 52 49 51 58 57 58 46 38 32 32 30 31 31 28 27 26 26 23 23 25 25 27 34 45 46 48 52 58 60
56 55 56 56 56 59 58 59 59 60 61 61 60 60 59 52 46 46 54 58 56 54 50 46 40 34 33 30 30 29 26 27 24 24 26 25 25 28 33 37 45 47 55 58 60
55 55 56 56 56 58 58 58 59 59 61 60 59 59 58 48 41 47 57 59 56 50 46 43 45 42 38 32 31 24 25 25 27 29 27 25 25 31 31 29 40 52 57 58 60
55 55 55 56 56 57 58 58 59 59 61 60 59 58 51 45 44 54 58 57 47 46 45 42 45 45 40 38 32 27 24 24 26 28 27 25 25 27 27 32 52 55 57 57 59
53 54 55 56 55 58 58 58 59 60 60 59 58 57 47 43 51 56 51 47 47 46 45 46 44 45 42 40 36 30 28 25 24 26 26 24 23 24 25 49 53 55 56 56 57
52 53 54 55 56 58 57 58 59 60 60 59 58 51 46 45 52 51 47 48 48 47 47 49 46 42 41 40 36 33 26 23 23 24 24 23 22 21 26 52 52 53 55 56 56
50 52 54 55 55 57 57 58 59 60 59 59 56 49 45 51 53 50 49 50 50 50 50 49 46 44 41 41 36 33 24 21 23 24 25 22 21 22 34 51 51 52 52 53 54
49 52 54 55 54 56 57 60 59 59 59 58 51 46 41 55 51 50 48 48 50 50 50 49 47 44 42 41 36 34 21 19 21 24 22 20 20 21 28 49 50 51 52 53 54
49 50 53 54 54 55 57 59 59 59 57 52 49 41 49 47 51 50 50 49 49 49 48 47 45 42 42 38 34 34 20 19 20 21 20 19 16 18 24 41 46 49 49 51 52
49 49 53 53 54 54 57 57 52 51 49 44 45 39 44 49 52 50 50 49 48 45 43 45 41 38 39 38 30 25 20 18 19 22 18 19 18 16 20 22 30 33 36 43 48
48 49 52 52 54 54 56 52 50 51 43 45 44 40 43 49 46 50 50 46 45 42 43 42 39 40 39 36 32 33 25 18 21 23 19 18 18 16 17 18 20 26 25 31 35
47 48 51 52 54 53 53 52 53 52 38 41 42 38 40 41 44 46 46 45 43 41 40 38 40 40 38 34 34 34 27 21 19 21 19 17 15 16 17 18 18 18 18 18 24
46 48 51 53 51 52 51 52 52 49 34 36 39 38 39 39 40 47 43 42 40 40 40 39 40 37 37 36 34 32 31 23 21 19 19 15 13 12 16 17 18 17 19 17 17
45 48 50 53 52 50 51 52 44 46 25 35 36 39 38 36 39 43 42 39 38 38 38 37 39 37 36 36 35 34 25 26 26 19 14 13 7 10 13 15 17 18 18 20 18
45 47 50 51 51 51 51 49 43 32 24 32 34 34 36 34 35 39 38 38 39 38 37 36 40 38 37 37 34 27 31 27 26 21 13 16 11 10 8 12 15 18 18 19 23
44 46 48 50 49 52 51 45 31 27 32 29 30 33 34 31 33 35 35 35 36 32 33 36 37 37 37 35 36 32 32 25 24 21 14 15 8 13 5 12 13 15 18 20 28
44 46 48 49 53 51 48 38 26 27 26 30 31 32 31 30 32 34 34 33 34 32 31 30 28 36 34 36 34 33 31 22 17 16 14 15 10 11 13 12 20 20 18 26 33
45 44 47 49 53 51 42 32 28 25 28 30 30 29 29 29 31 31 34 33 32 31 26 28 26 34 31 33 33 31 29 27 17 16 15 12 13 11 16 19 27 26 28 28 32
40 40 46 52 53 47 38 31 23 28 30 29 25 27 27 28 28 28 30 31 31 32 30 23 21 28 25 30 31 28 28 18 18 15 6 4 7 11 12 15 24 29 29 31 36
37 39 44 52 51 43 33 31 27 30 30 26 27 26 25 28 27 27 27 27 30 31 31 23 24 27 26 24 31 29 23 19 17 19 13 9 8 11 9 12 18 26 30 32 36
36 33 43 47 39 40 35 30 31 30 30 26 28 25 25 27 27 27 26 25 30 31 28 27 26 25 25 26 26 25 23 20 18 13 14 17 10 11 11 13 22 28 33 36 37
33 33 41 43 32 33 35 31 30 29 28 26 26 25 25 26 25 27 27 28 29 29 26 28 26 23 26 26 27 25 21 15 17 21 16 14 10 15 20 20 22 31 33 35 37
34 29 35 38 36 35 35 29 30 30 28 27 25 27 26 25 27 27 27 28 29 26 34 32 27 24 23 24 26 22 21 17 14 15 14 15 8 4 14 20 22 31 33 35 37
34 30 31 30 31 35 36 32 30 29 31 29 26 25 26 25 25 25 28 28 28 34 32 25 24 25 24 22 24 22 20 18 15 12 11 11 7 5 5 15 23 31 34 35 36
31 30 33 31 33 36 36 31 29 34 32 28 24 26 26 26 25 27 27 26 24 29 26 26 24 26 23 25 21 23 21 20 18 15 13 10 11 10 18 27 29 32 34 34 35
37 35 33 32 32 34 34 31 31 35 36 31 27 26 25 27 29 30 31 32 29 27 24 23 25 23 20 26 24 24 21 21 20 20 17 11 12 14 17 24 26 31 33 33 34

GFSSW_sfc_dewp_096.txt.gz
Dewpoint
58 58 58 58 58 60 60 59 60 61 62 62 62 62 61 61 60 55 50 51 50 59 57 43 37 33 35 33 33 31 27 25 24 21 25 28 25 28 36 47 47 50 51 53 60
57 57 58 58 58 58 60 59 60 60 61 61 62 62 61 60 53 51 53 56 59 58 44 35 31 32 30 33 31 28 27 27 27 22 21 26 25 27 36 44 47 47 55 59 61
57 57 57 57 57 57 58 59 59 60 61 61 62 61 59 52 48 48 56 56 58 54 49 42 37 32 34 31 29 30 26 28 26 25 25 26 24 32 37 40 43 47 55 58 59
55 57 57 55 56 56 56 55 59 59 60 60 61 60 58 48 42 47 58 60 58 48 46 42 42 38 37 34 33 26 25 26 28 28 27 25 27 30 35 33 36 48 57 58 58
55 56 56 55 55 56 57 56 59 59 60 60 61 59 53 47 46 51 58 58 50 45 42 41 42 42 39 35 31 28 30 27 26 27 27 26 25 27 32 33 49 55 58 58 58
53 55 55 56 55 56 56 57 59 58 59 60 60 57 48 45 50 55 54 47 46 44 46 45 45 44 42 38 32 33 36 27 25 24 26 24 22 26 28 51 53 56 56 58 58
52 53 54 55 55 55 56 57 58 58 59 60 60 52 46 45 53 50 47 48 47 47 47 48 45 44 42 41 36 38 35 32 24 25 25 23 21 21 27 51 53 54 55 56 58
51 51 53 54 55 56 55 58 58 58 58 60 58 49 45 51 50 48 49 49 50 51 48 48 48 46 42 42 38 41 38 34 29 24 25 23 22 23 40 50 51 52 53 55 56
50 51 52 54 55 56 55 58 57 57 59 59 53 48 42 55 49 48 48 48 50 50 49 48 48 46 46 42 41 39 38 36 35 25 23 21 21 22 41 49 49 50 51 53 54
50 49 51 54 54 55 56 58 57 58 58 54 50 44 50 47 50 49 50 50 49 47 47 47 46 43 42 43 36 37 36 26 34 25 21 20 18 17 26 48 48 50 50 51 53
49 49 49 53 54 54 55 55 51 51 51 45 45 41 46 50 50 49 49 48 48 45 43 45 42 40 41 43 39 38 38 35 21 22 20 20 20 21 20 30 44 48 50 51 52
49 49 49 52 52 54 54 51 49 50 43 48 43 45 50 48 47 48 48 45 44 38 44 42 40 42 41 41 35 34 33 33 22 22 20 19 19 21 19 21 34 42 45 48 48
48 48 48 51 51 52 51 51 54 50 41 44 41 45 48 46 46 47 47 46 42 39 41 39 40 41 40 38 35 35 33 32 23 22 20 17 17 18 17 18 19 21 34 39 45
46 46 48 51 46 47 49 53 53 50 35 39 40 40 42 44 45 49 47 44 42 41 41 40 41 39 39 38 36 34 34 31 26 23 26 17 16 19 18 17 17 18 19 22 23
46 45 48 51 48 46 51 54 52 48 25 38 39 41 40 39 45 45 43 42 39 41 41 38 40 39 37 36 36 35 31 30 31 26 22 24 13 17 13 16 17 18 18 19 19
45 45 48 49 49 49 54 52 49 33 24 34 36 37 35 37 37 45 40 41 42 38 37 37 39 39 39 38 36 35 35 35 35 33 27 28 18 19 15 13 16 17 18 18 19
44 44 46 49 41 47 53 47 33 29 34 31 34 36 34 34 39 39 37 37 36 33 33 36 38 37 39 36 37 36 35 28 27 26 24 21 16 21 15 14 15 16 17 19 19
42 44 46 47 49 49 49 40 28 30 32 32 35 35 32 33 36 37 36 35 36 32 34 32 30 35 37 37 36 36 34 27 22 22 21 14 13 18 15 12 13 14 16 18 21
44 43 45 46 50 48 44 33 31 31 31 31 35 33 31 31 34 34 34 33 35 32 30 30 29 37 35 36 37 34 33 26 19 19 19 15 15 15 15 15 19 21 23 20 23
40 41 44 50 50 45 39 34 25 29 31 34 31 31 29 29 31 31 33 34 34 33 30 29 24 34 32 35 35 36 34 30 25 16 12 10 10 17 13 11 14 21 25 24 25
40 38 44 49 49 42 32 33 28 31 32 29 29 28 28 28 29 30 31 32 33 33 32 27 26 27 30 35 35 34 33 31 28 20 15 10 8 12 12 13 10 13 21 25 29
37 33 43 47 35 33 34 34 32 30 30 29 28 26 29 29 27 29 31 29 34 33 31 31 27 24 25 26 30 34 32 31 27 20 15 18 13 10 11 11 13 17 26 31 34
33 33 42 44 30 31 37 32 31 29 27 27 26 26 29 29 27 28 28 30 33 32 31 30 26 24 26 28 28 31 28 32 28 22 19 17 15 9 17 18 19 21 30 34 36
34 27 35 37 34 34 35 33 29 31 27 26 26 28 28 28 27 28 28 29 32 32 37 32 27 25 21 23 26 24 30 24 28 24 22 18 14 13 13 13 17 21 31 34 36
33 29 30 30 31 35 38 33 28 27 29 27 25 26 26 25 26 26 27 28 31 34 33 28 24 24 25 25 27 25 26 27 22 25 19 22 16 11 11 10 12 20 32 34 36
31 29 32 30 33 35 37 33 27 31 28 25 24 26 26 26 26 26 27 27 26 29 29 26 23 25 24 23 23 25 23 26 23 19 19 18 13 12 11 22 25 28 33 33 34
36 36 32 30 31 33 34 34 27 33 35 28 27 26 26 27 28 29 29 29 29 28 26 26 25 25 19 24 24 24 25 23 22 22 21 19 18 15 12 15 17 20 32 32 33

GFSSW_sfc_dewp_102.txt.gz
Dewpoint
55 56 56 58 60 61 61 61 62 62 62 62 62 62 62 62 61 57 54 54 54 58 56 46 42 39 34 33 34 33 31 28 27 24 24 34 31 33 42 45 49 50 47 54 61
55 56 56 58 59 60 61 61 61 61 62 61 62 62 61 61 57 55 56 57 59 59 47 47 49 43 31 32 33 32 33 30 28 25 25 33 32 32 39 44 45 48 55 59 62
55 55 56 58 59 59 59 60 60 60 61 61 61 61 61 59 54 52 59 58 60 57 44 43 44 42 32 32 33 32 32 30 25 27 25 28 30 33 34 39 37 43 52 59 61
54 55 56 57 59 59 59 60 60 60 61 61 61 60 60 56 46 52 60 60 61 52 45 41 38 38 33 31 31 31 27 27 28 28 26 26 28 30 34 29 38 43 53 58 59
55 56 56 57 58 59 59 58 59 59 60 60 60 60 57 53 50 50 60 60 56 52 44 40 38 38 35 32 31 31 27 27 27 27 27 27 27 28 32 33 39 48 55 58 58
54 55 56 57 58 58 58 58 57 57 59 60 60 59 54 48 51 52 52 57 54 49 46 40 39 40 34 34 32 33 32 31 30 28 26 26 25 28 28 36 44 52 54 58 58
54 55 56 56 57 57 57 58 58 57 56 59 60 57 53 49 51 54 55 55 49 48 47 41 44 45 41 37 36 36 33 36 35 30 26 26 27 24 27 42 43 49 52 56 58
54 55 55 56 56 56 57 57 57 58 57 56 60 56 49 53 53 51 50 49 47 46 46 46 46 48 44 41 40 35 35 33 37 33 32 30 31 31 29 40 39 45 50 54 57
53 54 55 56 56 56 56 56 56 57 57 56 55 54 48 54 50 50 48 47 46 48 48 49 47 45 46 41 40 40 35 34 35 37 37 31 32 28 30 39 35 43 48 52 54
53 54 55 55 56 56 56 56 56 55 55 54 54 49 50 48 49 48 48 47 45 48 47 46 46 42 45 42 36 37 35 36 34 35 35 38 36 27 28 31 34 37 46 50 53
53 53 53 53 53 55 54 52 49 48 50 45 48 47 48 49 48 47 47 46 46 45 42 46 42 39 39 40 38 37 36 34 37 33 36 37 37 34 33 28 29 36 41 48 51
52 52 51 52 52 54 52 46 45 48 43 47 48 49 49 48 45 47 46 43 43 41 43 43 41 41 40 39 39 38 37 36 35 32 36 38 38 39 40 38 31 28 32 42 48
52 51 51 51 52 52 49 47 50 51 42 42 48 47 47 46 44 46 44 44 42 41 42 37 37 43 42 42 40 40 38 38 37 35 33 26 33 37 37 39 39 28 28 35 45
51 51 51 50 49 48 47 49 52 53 36 38 44 47 47 45 44 46 45 43 42 42 41 39 40 41 41 42 41 38 39 38 33 35 35 32 32 35 34 35 36 28 25 31 41
51 51 50 50 46 45 43 50 53 50 25 39 42 50 47 42 44 45 48 43 40 41 40 38 40 40 39 39 43 37 37 36 35 35 34 32 31 35 34 30 32 34 29 27 31
50 50 49 48 47 46 48 51 47 32 25 33 42 42 43 44 42 46 44 43 42 41 39 39 40 42 40 41 42 38 37 37 37 36 31 36 32 33 33 32 32 31 26 26 25
49 49 47 46 41 46 49 46 31 26 34 31 36 42 38 40 41 41 40 40 38 35 36 39 39 38 40 37 38 38 37 31 29 30 30 25 32 33 34 34 31 30 29 26 26
48 47 47 45 49 49 46 34 23 32 32 36 39 40 37 40 39 40 39 38 38 33 34 33 33 37 38 38 36 37 37 30 25 25 25 27 28 29 32 34 34 25 23 25 26
47 46 44 43 46 48 38 26 29 33 35 35 39 35 36 39 38 39 37 36 37 36 32 32 33 38 38 38 38 36 36 33 27 22 23 24 25 24 28 25 19 28 32 27 23
43 40 39 43 47 43 34 25 32 36 36 38 33 36 33 35 35 37 35 35 36 36 35 33 32 36 39 38 37 37 35 31 35 29 25 23 21 23 27 26 25 20 21 26 27
41 35 42 46 46 38 29 27 34 36 37 36 35 35 34 35 35 35 34 36 36 33 33 32 33 33 37 37 35 35 34 35 31 32 26 23 22 22 20 20 21 19 19 20 22
39 32 44 46 35 34 32 30 36 35 37 36 34 34 34 34 33 32 33 34 37 32 30 29 31 31 31 33 38 37 36 34 29 28 26 24 24 19 13 14 17 17 18 19 22
34 36 42 45 29 31 34 33 34 35 35 35 31 32 34 31 32 31 33 35 36 34 30 30 30 27 28 30 33 35 36 34 31 29 27 28 25 12 16 17 17 19 19 21 26
36 31 36 39 37 32 33 34 33 37 35 35 31 33 32 30 32 31 32 35 37 35 38 33 28 28 25 26 30 32 35 36 33 30 29 28 26 26 26 23 19 16 22 22 28
35 32 33 29 32 33 34 35 33 33 35 34 34 32 31 32 30 30 31 34 36 38 32 29 29 25 25 28 29 31 33 34 33 33 29 28 28 29 29 29 30 26 23 22 25
32 31 34 32 35 33 34 32 33 34 34 32 34 33 31 30 30 29 31 32 33 35 31 28 29 26 27 28 27 27 29 34 34 33 32 30 29 31 29 26 23 22 20 20 22
36 36 35 33 33 32 32 32 34 36 35 32 33 33 31 30 31 31 32 34 34 33 31 28 30 31 28 26 28 28 29 31 32 33 33 31 31 31 29 28 30 29 26 21 24

GFSSW_sfc_dewp_105.txt.gz
Dewpoint
55 55 55 56 58 60 61 62 62 62 62 62 63 63 63 62 61 57 54 54 54 59 56 50 52 49 44 34 36 34 32 30 30 28 27 33 34 34 40 41 43 46 41 50 60
55 56 56 57 58 60 61 61 61 61 62 62 62 62 62 62 57 55 58 57 59 60 49 51 52 52 44 34 35 34 33 31 29 27 26 31 33 33 36 39 42 46 51 57 61
55 56 56 57 57 59 61 61 61 61 61 61 61 61 61 59 54 53 60 59 60 59 50 49 53 51 47 34 34 35 33 33 27 27 25 27 33 32 34 34 35 40 49 58 60
54 56 57 57 57 59 60 61 60 60 60 60 60 60 61 56 46 52 61 61 61 55 48 46 47 45 37 36 35 34 35 32 28 28 26 26 29 31 33 32 36 36 48 56 59
54 55 57 57 57 59 60 60 60 60 60 60 59 60 57 52 49 50 61 60 55 54 47 45 46 45 40 36 38 35 33 28 27 28 26 27 26 27 28 32 35 41 51 55 58
54 55 56 56 57 58 59 59 60 60 60 60 59 59 51 47 51 51 54 56 54 53 47 45 45 48 42 36 35 35 34 28 28 31 28 28 27 27 27 28 35 45 50 54 57
54 55 55 56 57 58 59 59 58 58 59 60 59 56 51 48 51 51 50 54 55 52 49 46 44 46 43 39 35 34 33 31 31 35 36 32 34 26 27 34 35 42 47 52 56
54 54 55 56 57 58 58 58 58 57 57 58 59 56 49 51 51 51 51 53 54 53 49 48 43 44 44 39 34 34 33 32 34 33 33 34 36 32 30 30 32 36 41 48 53
53 54 55 55 56 57 57 57 57 58 57 57 55 54 47 55 50 52 52 51 49 48 48 46 44 45 45 40 37 36 34 32 33 36 34 34 35 37 30 29 31 31 37 43 49
53 54 55 55 55 56 56 56 55 56 55 54 53 48 50 47 51 50 50 50 48 48 47 46 44 42 45 42 37 36 34 34 33 35 37 35 35 37 33 30 30 29 32 40 45
53 54 55 55 55 56 54 52 48 48 50 45 42 45 48 47 51 49 49 48 48 47 44 44 39 39 41 41 39 38 36 34 35 34 36 36 36 38 38 38 35 30 29 33 42
53 54 54 55 55 55 51 46 45 44 42 46 44 46 48 50 47 48 48 45 46 42 42 43 40 37 39 42 41 40 38 36 36 34 36 36 36 37 38 39 39 35 33 30 34
53 53 54 54 54 53 48 45 45 47 42 40 45 44 46 49 45 46 47 47 44 41 40 37 37 38 37 38 39 39 39 36 35 35 35 35 35 36 38 39 40 40 39 34 30
53 53 52 52 48 47 45 48 49 50 37 32 43 42 49 47 45 48 47 45 44 40 40 37 35 38 37 36 38 37 40 38 36 37 36 36 34 36 37 37 39 40 40 39 34
52 52 52 50 40 43 43 48 49 48 23 36 39 47 46 44 45 45 48 46 42 39 41 38 35 37 39 37 39 39 40 40 39 37 36 35 33 34 34 34 36 35 39 41 37
52 52 52 48 46 43 44 48 48 32 24 36 43 43 43 43 44 46 47 48 44 39 38 38 41 37 37 39 41 39 38 37 37 37 33 36 33 32 31 34 35 35 34 39 36
51 51 49 46 42 48 49 46 31 25 35 33 37 40 40 40 40 42 41 41 38 36 36 38 40 40 40 36 40 39 38 33 32 32 31 29 34 32 34 35 35 35 35 35 37
51 51 47 44 45 48 48 36 21 30 31 36 37 39 37 39 39 40 39 38 41 37 34 34 32 39 41 39 36 38 36 28 23 24 23 30 29 30 34 34 34 35 33 30 33
50 48 46 46 47 49 40 27 25 28 34 33 35 36 35 39 38 39 38 38 39 35 32 31 34 40 40 38 38 37 35 34 28 26 27 25 27 28 31 30 29 27 30 34 30
45 42 41 45 47 46 35 26 31 33 35 36 33 36 34 35 36 37 37 39 37 35 32 31 33 37 38 39 38 37 36 33 35 30 25 21 25 25 29 28 27 28 28 26 28
39 35 40 45 47 39 29 27 27 29 34 33 35 33 35 35 36 36 37 39 35 34 32 31 33 33 38 37 36 36 35 35 33 32 26 23 20 25 23 11 18 20 20 19 20
42 33 43 47 34 35 31 25 27 24 33 34 33 37 37 36 35 36 35 35 36 35 32 33 32 32 34 34 38 36 34 33 29 29 29 28 25 17 15 17 20 18 20 23 25
37 36 43 43 30 30 28 24 28 28 33 32 34 38 39 35 33 35 35 35 37 36 33 33 33 27 29 34 36 35 35 34 30 32 29 28 23 24 24 21 19 19 20 26 28
39 30 37 38 38 29 29 28 29 32 33 34 34 33 38 35 35 34 34 37 38 35 38 35 32 29 26 29 35 34 35 35 32 30 28 28 24 20 21 20 19 21 30 28 28
40 34 34 29 32 32 29 29 29 32 35 35 34 34 37 33 35 35 33 36 36 37 33 31 32 28 27 28 33 35 35 35 33 31 28 28 27 28 28 28 28 30 32 29 27
34 33 34 34 34 30 32 31 29 30 34 34 33 35 37 33 34 34 33 35 36 37 33 32 31 27 30 29 32 33 33 35 35 34 32 31 29 29 29 30 29 30 30 29 26
37 36 38 33 34 31 31 32 32 35 36 34 34 35 37 33 33 34 35 35 36 37 36 31 32 34 29 29 28 29 31 34 34 34 33 30 31 32 31 30 30 29 30 31 28